Regional Weather Roundup
Issued by NWS

Home | Current Version | Previous Version | Graphics & Text | Print | Product List | Glossary On
Versions: 1 2 3 4 5 6 7 8 9 10 11 12 13 14 15 16 17 18 19 20 21 22 23 24 25 26 27 28 29 30 31 32 33 34 35 36 37 38 39 40 41 42 43 44 45 46 47 48 49 50
297
ASUS44 KJAN 020603
RWRMS

MISSISSIPPI HOURLY WEATHER ROUNDUP
NATIONAL WEATHER SERVICE JACKSON MS
100 AM CDT THU OCT 02 2014

NOTE: "FAIR: INDICATES FEW OR NO CLOUDS BELOW 12,000 FEET WITH NO
SIGNIFICANT WEATHER AND/OR OBSTRUCTIONS TO VISIBILITY.

MSZ001>002-007>008-010>013-018>021-025>028-034>036-020700-
NORTHWEST MISSISSIPPI

CITY           SKY/WX    TMP DP  RH WIND       PRES   REMARKS
CLARKSDALE     MOCLDY    75  66  73 S7        29.91S
GREENWOOD      PTCLDY    73  65  75 S7        29.92S
6HR MIN TEMP:  72; 6HR MAX TEMP:  81;

GREENVILLE     CLEAR     78  69  73 S13       29.89S
6HR MIN TEMP:  77; 6HR MAX TEMP:  85;

OLIVE BRANCH   CLEAR     72  64  78 S5        29.92S
OXFORD         FAIR      68  61  77 SE7       29.94F
TUNICA         CLEAR     72  64  78 SE7       29.91R
$$

MSZ003>006-009-014>017-022>024-029>033-037>039-020700-
NORTHEAST MISSISSIPPI

CITY           SKY/WX    TMP DP  RH WIND       PRES   REMARKS
COLUMBUS AFB   CLEAR     66  61  85 S5        29.95S
6HR MIN TEMP:  66; 6HR MAX TEMP:  78;

CORINTH          N/A     66  61  82 SE3       29.94R
GOLDN TRIANGLE CLEAR     72  61  68 S8        29.95S
STARKVILLE     FAIR      68  63  83 S5        29.96R
TUPELO         CLEAR     69  62  78 SW3       29.94S
6HR MIN TEMP:  69; 6HR MAX TEMP:  80;

$$

MSZ040-058-020700-
CENTRAL MISSISSIPPI

CITY           SKY/WX    TMP DP  RH WIND       PRES   REMARKS
JACKSON INTL   PTCLDY    75  71  87 S8        29.93F
6HR MIN TEMP:  74; 6HR MAX TEMP:  81;

JACKSON HAWKNS PTCLDY    76  71  85 S8        29.94S
6HR MIN TEMP:  76; 6HR MAX TEMP:  83;

MERIDIAN KEY   CLEAR     69  66  90 CALM      29.97S
6HR MIN TEMP:  68; 6HR MAX TEMP:  79;

MERIDIAN NAS   CLEAR     69  63  81 CALM      29.98R
6HR MIN TEMP:  68; 6HR MAX TEMP:  79;

RAYMOND        FAIR      75  72  88 S6        29.93S
VICKSBURG      MOCLDY    77  72  84 S14       29.91S
6HR MIN TEMP:  77; 6HR MAX TEMP:  84;

$$

MSZ059>079-020700-
SOUTH MISSISSIPPI

CITY           SKY/WX    TMP DP  RH WIND       PRES   REMARKS
BROOKHAVEN     CLOUDY    75  73  94 SE7       29.96S
COLUMBIA       MOCLDY    73  73 100 CALM      29.94S
HATTIESBURG    CLOUDY    76  73  91 SE6       29.96F
6HR MIN TEMP:  75; 6HR MAX TEMP:  80;

MCCOMB         CLOUDY    75  73  93 SE7       29.94F
6HR MIN TEMP:  74; 6HR MAX TEMP:  78;

NATCHEZ        CLOUDY    75  72  88 S10       29.92F
6HR MIN TEMP:  75; 6HR MAX TEMP:  81;

PINE BELT      MOCLDY   N/A N/A N/A SE3       29.97S
$$

MSZ080>082-020700-
COASTAL MISSISSIPPI

CITY           SKY/WX    TMP DP  RH WIND       PRES   REMARKS
BILOXI         PTCLDY    80  76  89 S6        29.95S
6HR MIN TEMP:  79; 6HR MAX TEMP:  80;

PASCAGOULA     PTCLDY    70  69  97 CALM      29.96S
6HR MIN TEMP:  70; 6HR MAX TEMP:  76;

GULFPORT       PTCLDY    79  74  84 SE7       29.94S
6HR MIN TEMP:  78; 6HR MAX TEMP:  80;

$$



USA.gov is the U.S. government's official web portal to all federal, state and local government web resources and services.